Location: Flotzheim
(48.8375°N, 10.8136°E)
Time: 15:44:22
(UTC+00:00)

Okean 1-7 Rocket - Pass Details

Date: 23 January 2021
Orbit: 615 x 650 km, 82.5° (Epoch: 28 February)

Event Time Altitude Azimuth Distance (km) Brightness Sun altitude
Rises 17:01:30 0° 177° (S) 2,946 7.2 -10.1°
Reaches altitude 10° 17:03:45 10° 173° (S) 2,044 6.4 -10.4°
Maximum altitude 17:08:13 58° 95° (E) 760 3.7 -11.1°
Drops below altitude 10° 17:12:43 10° 17° (NNE) 2,067 5.9 -11.8°
Sets 17:15:01 0° 13° (NNE) 2,982 6.8 -12.2°
